TimeEDT,TemperatureF,Dew PointF,Humidity,Sea Level PressureIn,VisibilityMPH,Wind Direction,Wind SpeedMPH,Gust SpeedMPH,PrecipitationIn,Events,Conditions,WindDirDegrees,DateUTC
12:53 AM,64.0,61.0,90,30.09,7.0,Calm,Calm,-,N/A,,Clear,0,2013-05-18 04:53:00
1:53 AM,62.1,60.1,93,30.09,5.0,Calm,Calm,-,N/A,,Clear,0,2013-05-18 05:53:00
2:04 AM,60.8,60.8,100,30.10,1.8,Calm,Calm,-,N/A,,Clear,0,2013-05-18 06:04:00
2:24 AM,60.8,59.0,94,30.09,2.5,Calm,Calm,-,N/A,,Clear,0,2013-05-18 06:24:00
2:33 AM,60.8,59.0,94,30.09,4.0,Calm,Calm,-,N/A,,Clear,0,2013-05-18 06:33:00
2:53 AM,60.1,59.0,96,30.08,4.0,SE,3.5,-,N/A,,Clear,140,2013-05-18 06:53:00
3:53 AM,59.0,57.9,96,30.07,3.0,Calm,Calm,-,N/A,,Clear,0,2013-05-18 07:53:00
4:30 AM,59.0,57.2,94,30.09,2.5,Calm,Calm,-,N/A,,Clear,0,2013-05-18 08:30:00
4:39 AM,60.8,57.2,88,30.09,3.0,Calm,Calm,-,N/A,,Clear,0,2013-05-18 08:39:00
4:53 AM,59.0,57.9,96,30.07,4.0,Calm,Calm,-,N/A,,Clear,0,2013-05-18 08:53:00
5:28 AM,59.0,57.2,94,30.09,4.0,Calm,Calm,-,N/A,,Scattered Clouds,0,2013-05-18 09:28:00
5:40 AM,59.0,57.2,94,30.09,3.0,Calm,Calm,-,N/A,,Mostly Cloudy,0,2013-05-18 09:40:00
5:50 AM,57.2,57.2,100,30.10,2.0,ESE,3.5,-,N/A,,Overcast,120,2013-05-18 09:50:00
5:53 AM,59.0,57.0,93,30.09,1.8,ESE,3.5,-,N/A,,Overcast,110,2013-05-18 09:53:00
6:00 AM,59.0,57.2,94,30.10,0.5,ESE,3.5,-,N/A,Fog,Fog,110,2013-05-18 10:00:00
6:06 AM,59.0,59.0,100,30.10,0.5,Calm,Calm,-,N/A,Fog,Fog,0,2013-05-18 10:06:00
6:33 AM,60.8,59.0,94,30.10,1.2,Calm,Calm,-,N/A,,Mostly Cloudy,0,2013-05-18 10:33:00
6:42 AM,60.8,59.0,94,30.11,1.2,Calm,Calm,-,N/A,,Partly Cloudy,0,2013-05-18 10:42:00
6:53 AM,60.1,59.0,96,30.09,1.8,North,-9999.0,-,N/A,,Clear,0,2013-05-18 10:53:00
7:22 AM,60.8,60.8,100,30.12,2.0,Calm,Calm,-,N/A,,Clear,0,2013-05-18 11:22:00
7:53 AM,62.1,60.1,93,30.11,3.0,Calm,Calm,-,N/A,,Mostly Cloudy,0,2013-05-18 11:53:00
8:53 AM,63.0,60.1,90,30.11,5.0,Calm,Calm,-,N/A,,Mostly Cloudy,0,2013-05-18 12:53:00
9:53 AM,66.0,61.0,84,30.11,8.0,ENE,3.5,-,N/A,,Clear,70,2013-05-18 13:53:00
10:53 AM,68.0,62.1,81,30.12,9.0,NE,4.6,-,N/A,,Overcast,40,2013-05-18 14:53:00
11:53 AM,70.0,63.0,78,30.11,10.0,Calm,Calm,-,N/A,,Overcast,0,2013-05-18 15:53:00
12:53 PM,73.9,64.0,71,30.10,10.0,SE,5.8,-,N/A,,Mostly Cloudy,140,2013-05-18 16:53:00
1:53 PM,75.9,62.1,62,30.08,10.0,South,4.6,-,N/A,,Partly Cloudy,170,2013-05-18 17:53:00
3:53 PM,80.1,63.0,56,30.04,10.0,SSW,5.8,-,N/A,,Partly Cloudy,200,2013-05-18 19:53:00
4:53 PM,81.0,63.0,54,30.03,10.0,Variable,3.5,-,N/A,,Partly Cloudy,0,2013-05-18 20:53:00
5:55 PM,71.6,59.0,64,30.06,0.8,NE,11.5,26.5,0.14,Rain,Heavy Rain,50,2013-05-18 21:55:00
6:05 PM,68.0,60.8,78,30.05,0.5,Calm,Calm,-,0.46,Rain-Thunderstorm,Heavy Thunderstorms and Rain,0,2013-05-18 22:05:00
6:14 PM,69.8,60.8,73,30.05,1.5,Calm,Calm,-,0.50,Rain,Rain,0,2013-05-18 22:14:00
6:21 PM,69.8,64.4,83,30.05,2.0,Variable,3.5,-,0.52,Rain-Thunderstorm,Thunderstorms and Rain,0,2013-05-18 22:21:00
6:30 PM,71.6,62.6,73,30.05,5.0,South,4.6,-,0.53,Rain,Light Rain,180,2013-05-18 22:30:00
6:53 PM,71.1,63.0,75,30.05,10.0,SSW,4.6,-,0.53,Rain,Light Rain,210,2013-05-18 22:53:00
7:53 PM,66.9,64.0,90,30.04,9.0,Calm,Calm,-,0.00,,Clear,0,2013-05-18 23:53:00
8:53 PM,66.0,64.9,96,30.05,7.0,Calm,Calm,-,N/A,,Partly Cloudy,0,2013-05-19 00:53:00
9:53 PM,66.0,62.1,87,30.06,10.0,Calm,Calm,-,N/A,,Partly Cloudy,0,2013-05-19 01:53:00
10:53 PM,64.9,62.1,90,30.06,9.0,Calm,Calm,-,N/A,,Partly Cloudy,0,2013-05-19 02:53:00
11:53 PM,64.0,61.0,90,30.06,10.0,Calm,Calm,-,N/A,,Mostly Cloudy,0,2013-05-19 03:53:00